Back to catalog

BLACKJACK ACES-2

AliveMilitarySSO
NORAD 56955·PAYLOAD·🇺🇸 United States

Launched Jun 12, 2023 from Vandenberg Space Force Base

Loading…

Next Passes (next 24 hours)

TLE

FreshSource: Space-Track

Epoch: Sep 13, 2026, 22:07 UTC

1 56955U 23084Z   26256.92183796  .00005271  00000-0  25689-3 0  9991
2 56955  97.6333  32.9693 0001893  67.1221 293.0212 15.18779182180642

Track BLACKJACK ACES-2 in real time with AllMySat

Download on the App Store